,,PressureMeas_1m,,PRMeasQMR101_1,,RHStat155_1m_1,,SRMeasQMS101R_1m,,TAStat155_1m_1,,GenWind_1,,GenWind_1,
2018-06-29, 00:00:06,VALID,917.994,VALID,0.0,VALID,98.86,VALID,0.018,VALID,18.776,VALID,121.0,VALID,1.888,
2018-06-29, 00:01:06,VALID,917.982,VALID,0.0,VALID,98.86,VALID,0.005,VALID,18.771,VALID,122.0,VALID,1.555,
2018-06-29, 00:02:06,VALID,917.971,VALID,0.0,VALID,98.876,VALID,0.02,VALID,18.781,VALID,127.0,VALID,1.496,
2018-06-29, 00:03:06,VALID,917.962,VALID,0.0,VALID,98.86,VALID,0.028,VALID,18.775,VALID,116.0,VALID,1.744,
2018-06-29, 00:04:06,VALID,917.947,VALID,0.0,VALID,98.862,VALID,0.015,VALID,18.769,VALID,124.0,VALID,1.645,
2018-06-29, 00:05:06,VALID,917.928,VALID,0.0,VALID,98.906,VALID,0.04,VALID,18.794,VALID,128.0,VALID,1.464,
2018-06-29, 00:06:06,VALID,917.912,VALID,0.0,VALID,98.917,VALID,0.032,VALID,18.805,VALID,123.0,VALID,2.033,
2018-06-29, 00:07:06,VALID,917.902,VALID,0.0,VALID,98.913,VALID,0.035,VALID,18.827,VALID,131.0,VALID,1.289,
2018-06-29, 00:08:06,VALID,917.884,VALID,0.0,VALID,98.911,VALID,0.051,VALID,18.807,VALID,126.0,VALID,1.763,
2018-06-29, 00:09:06,VALID,917.879,VALID,0.0,VALID,98.922,VALID,0.037,VALID,18.813,VALID,125.0,VALID,1.688,
2018-06-29, 00:10:06,VALID,917.873,VALID,0.0,VALID,98.944,VALID,0.024,VALID,18.827,VALID,129.0,VALID,0.991,
2018-06-29, 00:11:06,VALID,917.878,VALID,0.0,VALID,98.92,VALID,0.02,VALID,18.803,VALID,122.0,VALID,1.919,
2018-06-29, 00:12:06,VALID,917.875,VALID,0.0,VALID,98.93,VALID,0.043,VALID,18.793,VALID,122.0,VALID,1.654,
2018-06-29, 00:13:06,VALID,917.882,VALID,0.0,VALID,98.931,VALID,0.037,VALID,18.796,VALID,120.0,VALID,1.638,
2018-06-29, 00:14:06,VALID,917.873,VALID,0.0,VALID,98.934,VALID,0.05,VALID,18.788,VALID,122.0,VALID,2.457,
2018-06-29, 00:15:06,VALID,917.865,VALID,0.0,VALID,98.907,VALID,0.042,VALID,18.789,VALID,117.0,VALID,2.075,
2018-06-29, 00:16:06,VALID,917.846,VALID,0.0,VALID,98.922,VALID,0.025,VALID,18.772,VALID,117.0,VALID,1.915,
2018-06-29, 00:17:06,VALID,917.845,VALID,0.0,VALID,98.897,VALID,0.05,VALID,18.771,VALID,117.0,VALID,2.39,
2018-06-29, 00:18:06,VALID,917.828,VALID,0.0,VALID,98.875,VALID,0.045,VALID,18.76,VALID,120.0,VALID,2.101,
2018-06-29, 00:19:06,VALID,917.819,VALID,0.0,VALID,98.84,VALID,0.031,VALID,18.763,VALID,125.0,VALID,2.554,
2018-06-29, 00:20:06,VALID,917.801,VALID,0.0,VALID,98.794,VALID,0.014,VALID,18.772,VALID,128.0,VALID,2.398,
2018-06-29, 00:21:06,VALID,917.798,VALID,0.0,VALID,98.768,VALID,0.012,VALID,18.777,VALID,128.0,VALID,2.317,
2018-06-29, 00:22:06,VALID,917.784,VALID,0.0,VALID,98.696,VALID,0.006,VALID,18.76,VALID,124.0,VALID,2.167,
2018-06-29, 00:23:06,VALID,917.775,VALID,0.0,VALID,98.648,VALID,-0.002,VALID,18.738,VALID,121.0,VALID,2.535,
2018-06-29, 00:24:06,VALID,917.76,VALID,0.0,VALID,98.611,VALID,0.003,VALID,18.737,VALID,126.0,VALID,2.876,
2018-06-29, 00:25:06,VALID,917.732,VALID,0.0,VALID,98.583,VALID,0.011,VALID,18.745,VALID,128.0,VALID,2.737,
2018-06-29, 00:26:06,VALID,917.731,VALID,0.0,VALID,98.586,VALID,-0.002,VALID,18.768,VALID,123.0,VALID,1.985,
2018-06-29, 00:27:06,VALID,917.723,VALID,0.0,VALID,98.53,VALID,0.016,VALID,18.763,VALID,121.0,VALID,2.243,
2018-06-29, 00:28:06,VALID,917.702,VALID,0.0,VALID,98.471,VALID,0.016,VALID,18.754,VALID,125.0,VALID,1.51,
2018-06-29, 00:29:06,VALID,917.695,VALID,0.0,VALID,98.463,VALID,-0.008,VALID,18.761,VALID,135.0,VALID,1.411,
2018-06-29, 00:30:06,VALID,917.677,VALID,0.0,VALID,98.432,VALID,0.016,VALID,18.756,VALID,135.0,VALID,1.972,
2018-06-29, 00:31:06,VALID,917.654,VALID,0.0,VALID,98.384,VALID,-0.0,VALID,18.761,VALID,128.0,VALID,1.496,
2018-06-29, 00:32:06,VALID,917.654,VALID,0.0,VALID,98.325,VALID,0.005,VALID,18.756,VALID,135.0,VALID,2.149,
2018-06-29, 00:33:06,VALID,917.643,VALID,0.0,VALID,98.293,VALID,0.006,VALID,18.785,VALID,129.0,VALID,1.553,
2018-06-29, 00:34:06,VALID,917.643,VALID,0.0,VALID,98.212,VALID,0.002,VALID,18.757,VALID,114.0,VALID,2.146,
2018-06-29, 00:35:06,VALID,917.64,VALID,0.0,VALID,98.167,VALID,0.013,VALID,18.753,VALID,133.0,VALID,1.795,
2018-06-29, 00:36:06,VALID,917.63,VALID,0.0,VALID,98.143,VALID,0.006,VALID,18.739,VALID,113.0,VALID,1.902,
2018-06-29, 00:37:06,VALID,917.624,VALID,0.0,VALID,98.064,VALID,0.027,VALID,18.728,VALID,110.0,VALID,2.249,
2018-06-29, 00:38:06,VALID,917.626,VALID,0.0,VALID,98.027,VALID,0.023,VALID,18.74,VALID,109.0,VALID,2.63,
2018-06-29, 00:39:06,VALID,917.625,VALID,0.0,VALID,97.999,VALID,0.011,VALID,18.767,VALID,116.0,VALID,2.361,
2018-06-29, 00:40:06,VALID,917.622,VALID,0.0,VALID,97.885,VALID,0.012,VALID,18.773,VALID,117.0,VALID,1.765,
2018-06-29, 00:41:06,VALID,917.62,VALID,0.0,VALID,97.863,VALID,0.026,VALID,18.766,VALID,123.0,VALID,2.412,
2018-06-29, 00:42:06,VALID,917.626,VALID,0.0,VALID,97.819,VALID,0.015,VALID,18.749,VALID,110.0,VALID,1.96,
2018-06-29, 00:43:06,VALID,917.613,VALID,0.0,VALID,97.854,VALID,0.014,VALID,18.742,VALID,114.0,VALID,2.208,
2018-06-29, 00:44:06,VALID,917.61,VALID,0.0,VALID,97.869,VALID,0.026,VALID,18.738,VALID,123.0,VALID,2.002,
2018-06-29, 00:45:06,VALID,917.598,VALID,0.0,VALID,97.921,VALID,0.021,VALID,18.73,VALID,121.0,VALID,1.714,
2018-06-29, 00:46:06,VALID,917.596,VALID,0.0,VALID,97.936,VALID,0.026,VALID,18.727,VALID,114.0,VALID,2.745,
2018-06-29, 00:47:06,VALID,917.585,VALID,0.0,VALID,97.949,VALID,0.026,VALID,18.725,VALID,128.0,VALID,1.943,
2018-06-29, 00:48:06,VALID,917.579,VALID,0.0,VALID,97.953,VALID,0.01,VALID,18.733,VALID,154.0,VALID,1.762,
2018-06-29, 00:49:06,VALID,917.58,VALID,0.0,VALID,97.986,VALID,0.019,VALID,18.746,VALID,135.0,VALID,1.322,
2018-06-29, 00:50:06,VALID,917.563,VALID,0.0,VALID,97.963,VALID,-0.017,VALID,18.735,VALID,123.0,VALID,1.672,
2018-06-29, 00:51:06,VALID,917.567,VALID,0.0,VALID,97.918,VALID,-0.029,VALID,18.712,VALID,128.0,VALID,1.959,
2018-06-29, 00:52:06,VALID,917.56,VALID,0.0,VALID,97.845,VALID,-0.022,VALID,18.709,VALID,125.0,VALID,1.68,
2018-06-29, 00:53:06,VALID,917.579,VALID,0.0,VALID,97.833,VALID,-0.028,VALID,18.721,VALID,121.0,VALID,2.054,
2018-06-29, 00:54:06,VALID,917.571,VALID,0.0,VALID,97.778,VALID,-0.015,VALID,18.712,VALID,123.0,VALID,2.752,
2018-06-29, 00:55:06,VALID,917.562,VALID,0.0,VALID,97.802,VALID,-0.024,VALID,18.741,VALID,136.0,VALID,1.323,
2018-06-29, 00:56:06,VALID,917.564,VALID,0.0,VALID,97.865,VALID,-0.019,VALID,18.758,VALID,127.0,VALID,1.255,
2018-06-29, 00:57:06,VALID,917.565,VALID,0.0,VALID,97.96,VALID,-0.031,VALID,18.756,VALID,139.0,VALID,1.332,
2018-06-29, 00:58:06,VALID,917.559,VALID,0.0,VALID,97.994,VALID,-0.028,VALID,18.743,VALID,130.0,VALID,1.445,
2018-06-29, 00:59:06,VALID,917.542,VALID,0.0,VALID,98.004,VALID,-0.017,VALID,18.721,VALID,126.0,VALID,1.004,
2018-06-29, 01:00:06,VALID,917.533,VALID,0.0,VALID,98.05,VALID,-0.019,VALID,18.715,VALID,124.0,VALID,1.582,
2018-06-29, 01:01:06,VALID,917.534,VALID,0.0,VALID,98.061,VALID,-0.034,VALID,18.705,VALID,138.0,VALID,1.438,
2018-06-29, 01:02:06,VALID,917.526,VALID,0.0,VALID,98.132,VALID,-0.024,VALID,18.725,VALID,141.0,VALID,1.553,
2018-06-29, 01:03:06,VALID,917.502,VALID,0.0,VALID,98.203,VALID,-0.026,VALID,18.74,VALID,131.0,VALID,1.48,
2018-06-29, 01:04:06,VALID,917.495,VALID,0.0,VALID,98.201,VALID,-0.004,VALID,18.709,VALID,122.0,VALID,1.312,
2018-06-29, 01:05:06,VALID,917.473,VALID,0.0,VALID,98.259,VALID,-0.021,VALID,18.714,VALID,121.0,VALID,1.193,
2018-06-29, 01:06:06,VALID,917.445,VALID,0.0,VALID,98.307,VALID,-0.035,VALID,18.709,VALID,127.0,VALID,1.511,
2018-06-29, 01:07:06,VALID,917.433,VALID,0.0,VALID,98.304,VALID,-0.039,VALID,18.697,VALID,125.0,VALID,1.318,
2018-06-29, 01:08:06,VALID,917.406,VALID,0.0,VALID,98.312,VALID,-0.029,VALID,18.689,VALID,143.0,VALID,1.388,
2018-06-29, 01:09:06,VALID,917.384,VALID,0.0,VALID,98.362,VALID,-0.041,VALID,18.723,VALID,124.0,VALID,1.594,
2018-06-29, 01:10:06,VALID,917.37,VALID,0.0,VALID,98.36,VALID,-0.046,VALID,18.718,VALID,132.0,VALID,1.435,
2018-06-29, 01:11:06,VALID,917.352,VALID,0.0,VALID,98.363,VALID,-0.052,VALID,18.718,VALID,134.0,VALID,1.786,
2018-06-29, 01:12:06,VALID,917.349,VALID,0.0,VALID,98.4,VALID,-0.033,VALID,18.736,VALID,132.0,VALID,0.619,
2018-06-29, 01:13:06,VALID,917.34,VALID,0.0,VALID,98.416,VALID,-0.031,VALID,18.734,VALID,133.0,VALID,0.506,
2018-06-29, 01:14:06,VALID,917.319,VALID,0.0,VALID,98.417,VALID,-0.053,VALID,18.727,VALID,128.0,VALID,0.673,
2018-06-29, 01:15:06,VALID,917.31,VALID,0.0,VALID,98.385,VALID,-0.046,VALID,18.701,VALID,153.0,VALID,0.59,
2018-06-29, 01:16:06,VALID,917.306,VALID,0.0,VALID,98.345,VALID,-0.018,VALID,18.684,VALID,154.0,VALID,0.688,
2018-06-29, 01:17:06,VALID,917.303,VALID,0.0,VALID,98.359,VALID,-0.023,VALID,18.704,VALID,192.0,VALID,0.113,
2018-06-29, 01:18:06,VALID,917.298,VALID,0.0,VALID,98.35,VALID,-0.033,VALID,18.702,INVALID,360.0,VALID,0.258,
2018-06-29, 01:19:06,VALID,917.291,VALID,0.0,VALID,98.347,VALID,-0.029,VALID,18.68,VALID,120.0,VALID,0.164,
2018-06-29, 01:20:06,VALID,917.285,VALID,0.0,VALID,98.352,VALID,-0.047,VALID,18.658,VALID,134.0,VALID,0.355,
2018-06-29, 01:21:06,VALID,917.288,VALID,0.0,VALID,98.391,VALID,-0.037,VALID,18.653,VALID,130.0,VALID,0.499,
2018-06-29, 01:22:06,VALID,917.271,VALID,0.0,VALID,98.385,VALID,-0.051,VALID,18.626,VALID,118.0,VALID,0.878,
2018-06-29, 01:23:06,VALID,917.255,VALID,0.0,VALID,98.38,VALID,-0.044,VALID,18.601,VALID,120.0,VALID,0.564,
2018-06-29, 01:24:06,VALID,917.256,VALID,0.0,VALID,98.402,VALID,-0.042,VALID,18.592,VALID,121.0,VALID,0.761,
2018-06-29, 01:25:06,VALID,917.231,VALID,0.0,VALID,98.408,VALID,-0.045,VALID,18.594,VALID,127.0,VALID,0.226,
2018-06-29, 01:26:06,VALID,917.224,VALID,0.0,VALID,98.436,VALID,-0.03,VALID,18.597,VALID,116.0,VALID,0.676,
2018-06-29, 01:27:06,VALID,917.203,VALID,0.0,VALID,98.422,VALID,-0.03,VALID,18.575,VALID,129.0,VALID,0.304,
2018-06-29, 01:28:06,VALID,917.18,VALID,0.0,VALID,98.437,VALID,-0.027,VALID,18.563,VALID,130.0,VALID,0.207,
2018-06-29, 01:29:06,VALID,917.154,VALID,0.0,VALID,98.459,VALID,-0.044,VALID,18.567,VALID,123.0,VALID,0.14,
2018-06-29, 01:30:06,VALID,917.129,VALID,0.0,VALID,98.502,VALID,-0.031,VALID,18.589,INVALID,360.0,VALID,0.0,
2018-06-29, 01:31:06,VALID,917.108,VALID,0.0,VALID,98.522,VALID,-0.028,VALID,18.581,VALID,119.0,VALID,0.129,
2018-06-29, 01:32:06,VALID,917.105,VALID,0.0,VALID,98.492,VALID,-0.025,VALID,18.547,VALID,111.0,VALID,0.078,
2018-06-29, 01:33:06,VALID,917.088,VALID,0.0,VALID,98.47,VALID,-0.029,VALID,18.517,VALID,111.0,VALID,0.14,
2018-06-29, 01:34:06,VALID,917.082,VALID,0.0,VALID,98.48,VALID,-0.024,VALID,18.509,VALID,108.0,VALID,0.42,
2018-06-29, 01:35:06,VALID,917.075,VALID,0.0,VALID,98.486,VALID,-0.01,VALID,18.495,VALID,111.0,VALID,0.916,
2018-06-29, 01:36:06,VALID,917.077,VALID,0.0,VALID,98.495,VALID,-0.023,VALID,18.485,VALID,103.0,VALID,0.916,
2018-06-29, 01:37:06,VALID,917.077,VALID,0.0,VALID,98.47,VALID,-0.032,VALID,18.453,VALID,107.0,VALID,1.103,
2018-06-29, 01:38:06,VALID,917.077,VALID,0.0,VALID,98.453,VALID,-0.025,VALID,18.421,VALID,105.0,VALID,1.245,
2018-06-29, 01:39:06,VALID,917.081,VALID,0.0,VALID,98.404,VALID,-0.027,VALID,18.405,VALID,107.0,VALID,1.068,
2018-06-29, 01:40:06,VALID,917.077,VALID,0.0,VALID,98.361,VALID,-0.024,VALID,18.39,VALID,98.0,VALID,0.847,
2018-06-29, 01:41:06,VALID,917.065,VALID,0.0,VALID,98.307,VALID,-0.023,VALID,18.382,VALID,81.0,VALID,0.63,
2018-06-29, 01:42:06,VALID,917.057,VALID,0.0,VALID,98.292,VALID,-0.053,VALID,18.381,VALID,77.0,VALID,0.29,
2018-06-29, 01:43:06,VALID,917.034,VALID,0.0,VALID,98.299,VALID,-0.054,VALID,18.379,VALID,43.0,VALID,0.249,
2018-06-29, 01:44:06,VALID,917.017,VALID,0.0,VALID,98.296,VALID,-0.038,VALID,18.379,VALID,16.0,VALID,0.13,
2018-06-29, 01:45:06,VALID,916.99,VALID,0.0,VALID,98.305,VALID,-0.048,VALID,18.368,VALID,358.0,VALID,0.353,
2018-06-29, 01:46:06,VALID,916.959,VALID,0.0,VALID,98.284,VALID,-0.039,VALID,18.343,VALID,344.0,VALID,0.236,
2018-06-29, 01:47:06,VALID,916.934,VALID,0.0,VALID,98.256,VALID,-0.048,VALID,18.303,VALID,332.0,VALID,0.375,
2018-06-29, 01:48:06,VALID,916.922,VALID,0.0,VALID,98.27,VALID,-0.041,VALID,18.263,VALID,305.0,VALID,0.366,
2018-06-29, 01:49:06,VALID,916.887,VALID,0.0,VALID,98.161,VALID,-0.035,VALID,18.186,VALID,305.0,VALID,0.655,
2018-06-29, 01:50:06,VALID,916.877,VALID,0.0,VALID,98.173,VALID,-0.037,VALID,18.151,VALID,304.0,VALID,0.409,
2018-06-29, 01:51:06,VALID,916.85,VALID,0.0,VALID,98.269,VALID,-0.015,VALID,18.156,VALID,304.0,VALID,0.257,
2018-06-29, 01:52:06,VALID,916.833,VALID,0.0,VALID,98.332,VALID,-0.01,VALID,18.136,VALID,292.0,VALID,0.097,
2018-06-29, 01:53:06,VALID,916.811,VALID,0.0,VALID,98.379,VALID,-0.011,VALID,18.136,VALID,282.0,VALID,0.017,
2018-06-29, 01:54:06,VALID,916.778,VALID,0.0,VALID,98.423,VALID,-0.007,VALID,18.092,VALID,314.0,VALID,0.361,
2018-06-29, 01:55:06,VALID,916.765,VALID,0.0,VALID,98.357,VALID,-0.024,VALID,17.987,VALID,340.0,VALID,0.421,
2018-06-29, 01:56:06,VALID,916.739,VALID,0.0,VALID,98.361,VALID,-0.026,VALID,17.923,VALID,344.0,VALID,0.405,
2018-06-29, 01:57:06,VALID,916.725,VALID,0.0,VALID,98.448,VALID,-0.034,VALID,17.911,VALID,347.0,VALID,0.289,
2018-06-29, 01:58:06,VALID,916.704,VALID,0.0,VALID,98.523,VALID,-0.016,VALID,17.908,INVALID,360.0,VALID,0.082,
2018-06-29, 01:59:06,VALID,916.684,VALID,0.0,VALID,98.545,VALID,-0.011,VALID,17.901,INVALID,360.0,VALID,0.0,
2018-06-29, 02:00:06,VALID,916.666,VALID,0.0,VALID,98.578,VALID,-0.021,VALID,17.869,INVALID,360.0,VALID,0.0,
2018-06-29, 02:01:06,VALID,916.638,VALID,0.0,VALID,98.582,VALID,-0.016,VALID,17.85,INVALID,360.0,VALID,0.0,
2018-06-29, 02:02:06,VALID,916.63,VALID,0.0,VALID,98.644,VALID,0.005,VALID,17.845,VALID,50.0,VALID,0.328,
2018-06-29, 02:03:06,VALID,916.623,VALID,0.0,VALID,98.656,VALID,0.004,VALID,17.84,VALID,46.0,VALID,0.593,
2018-06-29, 02:04:06,VALID,916.63,VALID,0.0,VALID,98.674,VALID,-0.011,VALID,17.829,VALID,44.0,VALID,0.701,
2018-06-29, 02:05:06,VALID,916.632,VALID,0.0,VALID,98.721,VALID,0.011,VALID,17.835,VALID,44.0,VALID,0.716,
2018-06-29, 02:06:06,VALID,916.632,VALID,0.0,VALID,98.78,VALID,0.022,VALID,17.851,VALID,44.0,VALID,0.744,
2018-06-29, 02:07:06,VALID,916.639,VALID,0.0,VALID,98.817,VALID,0.017,VALID,17.873,VALID,44.0,VALID,0.71,
2018-06-29, 02:08:06,VALID,916.643,VALID,0.0,VALID,98.84,VALID,0.024,VALID,17.903,VALID,44.0,VALID,0.659,
2018-06-29, 02:09:06,VALID,916.64,VALID,0.0,VALID,98.855,VALID,0.025,VALID,17.921,VALID,45.0,VALID,0.614,
2018-06-29, 02:10:06,VALID,916.64,VALID,0.0,VALID,98.877,VALID,0.019,VALID,17.951,VALID,47.0,VALID,0.869,
2018-06-29, 02:11:06,VALID,916.634,VALID,0.0,VALID,98.914,VALID,0.019,VALID,18.005,VALID,47.0,VALID,0.725,
2018-06-29, 02:12:06,VALID,916.612,VALID,0.0,VALID,98.934,VALID,0.001,VALID,18.046,VALID,46.0,VALID,0.881,
2018-06-29, 02:13:06,VALID,916.607,VALID,0.0,VALID,98.964,VALID,0.026,VALID,18.05,VALID,47.0,VALID,0.896,
2018-06-29, 02:14:06,VALID,916.601,VALID,0.0,VALID,98.957,VALID,0.018,VALID,18.064,VALID,50.0,VALID,0.884,
2018-06-29, 02:15:06,VALID,916.576,VALID,0.0,VALID,98.983,VALID,0.016,VALID,18.095,VALID,47.0,VALID,0.932,
2018-06-29, 02:16:06,VALID,916.567,VALID,0.0,VALID,98.965,VALID,0.012,VALID,18.102,VALID,50.0,VALID,1.194,
2018-06-29, 02:17:06,VALID,916.555,VALID,0.0,VALID,98.981,VALID,0.009,VALID,18.122,VALID,49.0,VALID,1.077,
2018-06-29, 02:18:06,VALID,916.541,VALID,0.0,VALID,98.998,VALID,0.025,VALID,18.154,VALID,48.0,VALID,0.455,
2018-06-29, 02:19:06,VALID,916.528,VALID,0.0,VALID,98.98,VALID,0.01,VALID,18.137,VALID,48.0,VALID,0.721,
2018-06-29, 02:20:06,VALID,916.516,VALID,0.0,VALID,98.996,VALID,-0.024,VALID,18.129,VALID,48.0,VALID,0.25,
2018-06-29, 02:21:06,VALID,916.513,VALID,0.0,VALID,99.017,VALID,-0.018,VALID,18.118,VALID,48.0,VALID,0.362,
2018-06-29, 02:22:06,VALID,916.511,VALID,0.0,VALID,98.981,VALID,-0.028,VALID,18.118,VALID,50.0,VALID,0.433,
2018-06-29, 02:23:06,VALID,916.516,VALID,0.0,VALID,99.016,VALID,-0.029,VALID,18.129,VALID,50.0,VALID,0.443,
2018-06-29, 02:24:06,VALID,916.514,VALID,0.0,VALID,98.997,VALID,-0.031,VALID,18.11,VALID,46.0,VALID,0.509,
2018-06-29, 02:25:06,VALID,916.513,VALID,0.0,VALID,99.008,VALID,-0.016,VALID,18.105,VALID,46.0,VALID,0.458,
2018-06-29, 02:26:06,VALID,916.515,VALID,0.0,VALID,99.008,VALID,-0.025,VALID,18.101,VALID,43.0,VALID,0.832,
2018-06-29, 02:27:06,VALID,916.514,VALID,0.0,VALID,98.997,VALID,-0.025,VALID,18.088,VALID,43.0,VALID,0.576,
2018-06-29, 02:28:06,VALID,916.529,VALID,0.0,VALID,99.019,VALID,-0.025,VALID,18.08,VALID,43.0,VALID,0.637,
2018-06-29, 02:29:06,VALID,916.53,VALID,0.0,VALID,99.012,VALID,-0.06,VALID,18.07,VALID,43.0,VALID,0.454,
2018-06-29, 02:30:06,VALID,916.538,VALID,0.0,VALID,99.035,VALID,-0.04,VALID,18.062,VALID,44.0,VALID,0.73,
2018-06-29, 02:31:06,VALID,916.536,VALID,0.0,VALID,99.015,VALID,-0.045,VALID,18.049,VALID,45.0,VALID,0.584,
2018-06-29, 02:32:06,VALID,916.551,VALID,0.0,VALID,99.039,VALID,-0.029,VALID,18.045,VALID,43.0,VALID,0.618,
2018-06-29, 02:33:06,VALID,916.564,VALID,0.0,VALID,99.033,VALID,-0.035,VALID,18.038,VALID,42.0,VALID,0.563,
2018-06-29, 02:34:06,VALID,916.56,VALID,0.0,VALID,99.045,VALID,-0.029,VALID,18.047,VALID,43.0,VALID,0.582,
2018-06-29, 02:35:06,VALID,916.57,VALID,0.0,VALID,99.049,VALID,0.008,VALID,18.036,VALID,43.0,VALID,0.762,
2018-06-29, 02:36:06,VALID,916.573,VALID,0.0,VALID,99.047,VALID,0.018,VALID,18.034,VALID,43.0,VALID,0.861,
2018-06-29, 02:37:06,VALID,916.563,VALID,0.0,VALID,99.056,VALID,0.009,VALID,18.027,VALID,44.0,VALID,0.593,
2018-06-29, 02:38:06,VALID,916.534,VALID,0.0,VALID,99.047,VALID,0.008,VALID,18.019,VALID,43.0,VALID,0.475,
2018-06-29, 02:39:06,VALID,916.516,VALID,0.0,VALID,99.063,VALID,-0.006,VALID,18.032,INVALID,360.0,VALID,0.005,
2018-06-29, 02:40:06,VALID,916.484,VALID,0.0,VALID,99.089,VALID,0.015,VALID,18.054,INVALID,360.0,VALID,0.0,
2018-06-29, 02:41:06,VALID,916.453,VALID,0.0,VALID,99.066,VALID,0.011,VALID,18.069,INVALID,360.0,VALID,0.0,
2018-06-29, 02:42:06,VALID,916.441,VALID,0.0,VALID,99.06,VALID,0.002,VALID,18.07,INVALID,360.0,VALID,0.0,
2018-06-29, 02:43:06,VALID,916.44,VALID,0.0,VALID,99.045,VALID,0.01,VALID,18.025,INVALID,360.0,VALID,0.0,
2018-06-29, 02:44:06,VALID,916.431,VALID,0.0,VALID,99.063,VALID,0.008,VALID,18.02,INVALID,360.0,VALID,0.0,
2018-06-29, 02:45:06,VALID,916.437,VALID,0.0,VALID,99.027,VALID,0.013,VALID,17.975,VALID,46.0,VALID,0.479,
2018-06-29, 02:46:06,VALID,916.446,VALID,0.0,VALID,99.024,VALID,0.0,VALID,17.944,VALID,46.0,VALID,0.817,
2018-06-29, 02:47:06,VALID,916.455,VALID,0.0,VALID,99.026,VALID,0.008,VALID,17.908,VALID,47.0,VALID,1.069,
2018-06-29, 02:48:06,VALID,916.46,VALID,0.0,VALID,99.034,VALID,-0.005,VALID,17.893,VALID,47.0,VALID,1.13,
2018-06-29, 02:49:06,VALID,916.474,VALID,0.0,VALID,99.034,VALID,0.011,VALID,17.891,VALID,46.0,VALID,0.901,
2018-06-29, 02:50:06,VALID,916.475,VALID,0.0,VALID,99.058,VALID,0.051,VALID,17.884,VALID,47.0,VALID,0.495,
2018-06-29, 02:51:06,VALID,916.463,VALID,0.0,VALID,99.04,VALID,0.035,VALID,17.894,VALID,47.0,VALID,0.359,
2018-06-29, 02:52:06,VALID,916.462,VALID,0.0,VALID,99.033,VALID,0.036,VALID,17.905,VALID,46.0,VALID,0.127,
2018-06-29, 02:53:06,VALID,916.447,VALID,0.0,VALID,99.029,VALID,0.031,VALID,17.92,INVALID,360.0,VALID,0.036,
2018-06-29, 02:54:06,VALID,916.441,VALID,0.0,VALID,99.043,VALID,0.024,VALID,17.948,INVALID,360.0,VALID,0.089,
2018-06-29, 02:55:06,VALID,916.454,VALID,0.0,VALID,98.996,VALID,0.056,VALID,17.935,VALID,28.0,VALID,0.33,
2018-06-29, 02:56:06,VALID,916.458,VALID,0.0,VALID,98.99,VALID,0.044,VALID,17.903,VALID,25.0,VALID,0.172,
2018-06-29, 02:57:06,VALID,916.442,VALID,0.0,VALID,99.0,VALID,0.054,VALID,17.884,VALID,4.0,VALID,0.38,
2018-06-29, 02:58:06,VALID,916.449,VALID,0.0,VALID,98.941,VALID,0.014,VALID,17.853,VALID,339.0,VALID,0.038,
2018-06-29, 02:59:06,VALID,916.453,VALID,0.0,VALID,98.975,VALID,0.041,VALID,17.855,VALID,350.0,VALID,0.14,
2018-06-29, 03:00:06,VALID,916.471,VALID,0.0,VALID,98.902,VALID,0.055,VALID,17.804,VALID,351.0,VALID,0.01,
2018-06-29, 03:01:06,VALID,916.483,VALID,0.0,VALID,98.947,VALID,0.048,VALID,17.811,VALID,351.0,VALID,0.0,
2018-06-29, 03:02:06,VALID,916.502,VALID,0.0,VALID,98.958,VALID,0.048,VALID,17.822,VALID,351.0,VALID,0.0,
2018-06-29, 03:03:06,VALID,916.509,VALID,0.0,VALID,98.954,VALID,0.037,VALID,17.822,VALID,351.0,VALID,0.0,
2018-06-29, 03:04:06,VALID,916.541,VALID,0.0,VALID,98.975,VALID,0.036,VALID,17.821,VALID,352.0,VALID,0.0,
2018-06-29, 03:05:06,VALID,916.549,VALID,0.0,VALID,98.968,VALID,-0.042,VALID,17.819,VALID,30.0,VALID,0.0,
2018-06-29, 03:06:06,VALID,916.569,VALID,0.0,VALID,98.97,VALID,-0.034,VALID,17.82,VALID,67.0,VALID,0.224,
2018-06-29, 03:07:06,VALID,916.558,VALID,0.0,VALID,98.968,VALID,-0.051,VALID,17.832,VALID,67.0,VALID,0.167,
2018-06-29, 03:08:06,VALID,916.555,VALID,0.0,VALID,98.963,VALID,-0.039,VALID,17.826,VALID,76.0,VALID,0.292,
2018-06-29, 03:09:06,VALID,916.549,VALID,0.0,VALID,98.964,VALID,-0.031,VALID,17.812,VALID,79.0,VALID,0.376,
2018-06-29, 03:10:06,VALID,916.547,VALID,0.0,VALID,98.961,VALID,-0.03,VALID,17.812,VALID,79.0,VALID,0.564,
2018-06-29, 03:11:06,VALID,916.537,VALID,0.0,VALID,98.951,VALID,-0.037,VALID,17.788,VALID,79.0,VALID,0.787,
2018-06-29, 03:12:06,VALID,916.532,VALID,0.0,VALID,98.955,VALID,-0.046,VALID,17.789,VALID,81.0,VALID,0.841,
2018-06-29, 03:13:06,VALID,916.53,VALID,0.0,VALID,98.963,VALID,-0.051,VALID,17.784,VALID,83.0,VALID,0.818,
2018-06-29, 03:14:06,VALID,916.526,VALID,0.0,VALID,98.973,VALID,-0.055,VALID,17.773,VALID,69.0,VALID,1.013,
2018-06-29, 03:15:06,VALID,916.534,VALID,0.0,VALID,98.968,VALID,-0.057,VALID,17.761,VALID,64.0,VALID,0.989,
2018-06-29, 03:16:06,VALID,916.535,VALID,0.0,VALID,98.961,VALID,-0.053,VALID,17.746,VALID,62.0,VALID,1.015,
2018-06-29, 03:17:06,VALID,916.534,VALID,0.0,VALID,98.981,VALID,-0.048,VALID,17.749,VALID,59.0,VALID,1.061,
2018-06-29, 03:18:06,VALID,916.521,VALID,0.0,VALID,98.964,VALID,-0.035,VALID,17.738,VALID,56.0,VALID,0.963,
2018-06-29, 03:19:06,VALID,916.526,VALID,0.0,VALID,98.981,VALID,-0.044,VALID,17.734,VALID,56.0,VALID,0.924,
2018-06-29, 03:20:06,VALID,916.516,VALID,0.0,VALID,98.979,VALID,-0.018,VALID,17.751,VALID,46.0,VALID,0.669,
2018-06-29, 03:21:06,VALID,916.522,VALID,0.0,VALID,98.997,VALID,0.001,VALID,17.757,VALID,42.0,VALID,0.534,
2018-06-29, 03:22:06,VALID,916.5,VALID,0.0,VALID,98.998,VALID,0.009,VALID,17.766,VALID,31.0,VALID,0.311,
2018-06-29, 03:23:06,VALID,916.514,VALID,0.0,VALID,99.015,VALID,-0.013,VALID,17.787,VALID,27.0,VALID,0.144,
2018-06-29, 03:24:06,VALID,916.504,VALID,0.0,VALID,99.01,VALID,-0.005,VALID,17.789,VALID,31.0,VALID,0.202,
2018-06-29, 03:25:06,VALID,916.501,VALID,0.0,VALID,99.012,VALID,0.003,VALID,17.774,VALID,21.0,VALID,0.407,
2018-06-29, 03:26:06,VALID,916.51,VALID,0.0,VALID,98.967,VALID,-0.011,VALID,17.751,VALID,23.0,VALID,0.123,
2018-06-29, 03:27:06,VALID,916.499,VALID,0.0,VALID,98.956,VALID,-0.023,VALID,17.723,VALID,35.0,VALID,0.387,
2018-06-29, 03:28:06,VALID,916.492,VALID,0.0,VALID,98.963,VALID,-0.025,VALID,17.707,VALID,44.0,VALID,0.409,
2018-06-29, 03:29:06,VALID,916.48,VALID,0.0,VALID,98.923,VALID,-0.023,VALID,17.681,VALID,60.0,VALID,0.523,
2018-06-29, 03:30:06,VALID,916.48,VALID,0.0,VALID,98.954,VALID,-0.006,VALID,17.656,VALID,75.0,VALID,0.484,
2018-06-29, 03:31:06,VALID,916.483,VALID,0.0,VALID,98.947,VALID,0.007,VALID,17.652,VALID,75.0,VALID,0.201,
2018-06-29, 03:32:06,VALID,916.477,VALID,0.0,VALID,98.961,VALID,-0.005,VALID,17.644,VALID,77.0,VALID,0.386,
2018-06-29, 03:33:06,VALID,916.465,VALID,0.0,VALID,98.945,VALID,-0.005,VALID,17.635,VALID,83.0,VALID,0.787,
2018-06-29, 03:34:06,VALID,916.453,VALID,0.0,VALID,98.948,VALID,0.009,VALID,17.622,VALID,86.0,VALID,0.874,
2018-06-29, 03:35:06,VALID,916.451,VALID,0.0,VALID,98.957,VALID,-0.042,VALID,17.627,VALID,87.0,VALID,0.729,
2018-06-29, 03:36:06,VALID,916.445,VALID,0.0,VALID,98.972,VALID,-0.03,VALID,17.642,VALID,87.0,VALID,0.718,
2018-06-29, 03:37:06,VALID,916.452,VALID,0.0,VALID,98.971,VALID,-0.025,VALID,17.652,VALID,86.0,VALID,0.603,
2018-06-29, 03:38:06,VALID,916.452,VALID,0.0,VALID,98.982,VALID,-0.044,VALID,17.662,VALID,87.0,VALID,0.704,